www.pogodaiklimat.ru
Время
и дата
12:04 30.12
12:19 30.12
12:27 30.12
12:34 30.12
12:37 30.12
12:45 30.12
12:53 30.12
13:01 30.12
13:17 30.12
13:23 30.12
13:53 30.12
14:53 30.12
15:33 30.12
15:44 30.12
15:53 30.12
16:37 30.12
16:42 30.12
16:53 30.12
16:59 30.12
17:53 30.12
18:53 30.12
19:53 30.12
20:53 30.12
21:53 30.12
22:53 30.12
23:19 30.12
23:31 30.12
23:45 30.12
23:51 30.12
23:53 30.12
00:53 31.12
01:53 31.12
02:53 31.12
03:53 31.12
04:53 31.12
05:53 31.12
06:53 31.12
07:14 31.12
07:53 31.12
08:06 31.12
08:53 31.12
09:53 31.12
10:53 31.12
11:53 31.12
12:53 31.12
13:53 31.12
14:53 31.12
15:53 31.12
Ветер
(напр.,м/с)
Видим. Явления Облачность Т
(С)
Тd
(С)
f
(%)
Тe
(С)
Тes
(С)
Комфортность P
(гПа)
Po
(гПа)
Тmin
(С)
Tmax
(С)
R
(мм)
R24
(мм)
S
(см)
В 2 3 км слабый снег, дымка 10/10 690 м -2.8 -4.4 89 -10 -10 905.7
В 2 2 км слабый снег, дымка 10/10 840 м -2.8 -4.4 89 -9 -9 905.7
В 2 1 км слабый снег, дымка 10/10 900 м -2.8 -3.9 92 -9 -9 905.4
В 2 2 км слабый снег, дымка 10/10 900 м -2.8 -3.9 92 -9 -9 905.4
В 2 3 км слабый снег, дымка 10/10 840 м -2.8 -3.9 92 -9 -9 905.1
В 2 3 км слабый снег, дымка 10/10 450 м -2.2 -3.9 88 -8 -8 905.1
В 1 4 км слабый снег, дымка 10/10 870 м -2.2 -3.9 88 -7 -7 1005.6 904.8
В 1 6 км слабый снег, дымка 10/10 870 м -2.2 -3.3 92 -7 -7 904.8
В 2 3 км слабый снег, дымка 10/10 810 м -2.2 -3.3 92 -8 -8 904.4
В 2 5 км слабый снег, дымка 10/8 930 м
[Ac]
-2.2 -3.3 92 -8 -8 904.4
В 2 16 км 5/0 2400 м
[Ac]
-2.2 -3.9 88 -9 -8 1004.6 903.8 1.5
ЮВ 1 16 км 10/8 1800 м
[Ac]
-1.7 -3.9 85 -7 -6 1004.4 903.8
ЮВ 2 3 км слабый снег, дымка 10/10 810 м -1.7 -3.9 85 -8 -8 903.8
ЮВ 2 3 км слабый снег, дымка 10/10 930 м -1.7 -3.9 85 -8 -8 903.8
В 2 11 км слабый снег 10/10 1170 м -1.7 -3.9 85 -8 -8 1004.3 903.8
В 2 3 км слабый снег, дымка 10/10 810 м -1.7 -3.9 85 -8 -8 904.1
ЮВ 2 1 км слабый снег, дымка 10/10 750 м -1.7 -3.3 89 -8 -8 904.1
ЮВ 2 2 км слабый снег, дымка 10/10 990 м -1.7 -3.3 89 -8 -8 1004.5 904.1 -3.3 -1.1 1.8
ЮВ 2 5 км слабый снег, дымка 10/10 990 м -1.7 -3.3 89 -8 -8 904.1
В 1 16 км 10/10 1410 м -2.2 -3.9 88 -7 -7 1004.9 904.4
ЮВ 1 16 км 8/8 1230 м -3.3 -5.0 88 -9 -9 1005.1 904.8
ЮВ 2 16 км 5/0 3600 м
[Ac]
-4.4 -6.1 88 -11 -11 1005.4 904.8
ЮВ 2 16 км 8/0 3000 м
[Ac]
-5.0 -6.7 88 -11 -11 1005.4 904.8
ЮВ 1 16 км 8/8 1410 м
[Ac]
-3.3 -5.6 84 -9 -9 1005.1 904.8
ЮВ 2 16 км 10/8 1500 м
[Ac]
-2.2 -4.4 85 -8 -8 1004.8 904.4 -5.0 -1.7
ЮВ 2 4 км слабый снег 10/10 840 м -1.7 -4.4 82 -8 -8 904.8
Ю 2 6 км слабый снег, дымка 10/10 720 м -1.7 -3.9 85 -8 -8 904.4
ЮВ 2 3 км слабый снег, дымка 10/10 780 м -2.2 -3.9 88 -9 -9 904.4
ЮВ 2 5 км слабый снег, дымка 10/10 960 м -2.0 -4.0 86 -9 -9 904.4
ЮВ 2 6 км слабый снег, дымка 10/10 1020 м -2.2 -3.9 88 -9 -9 1004.7 904.4
В 2 16 км 10/10 1500 м -1.7 -4.4 82 -8 -8 1004.4 904.1
ЮВ 1 16 км 10/10 1350 м -1.7 -5.0 78 -7 -7 1004.1 904.1
В 1 16 км 10/5 1350 м
[Ac]
-1.7 -5.0 78 -5 -5 1004.4 904.4
З 1 16 км 10/5 1650 м
[Ac]
-2.2 -5.6 77 -6 -6 1004.3 904.1
З 1 16 км 8/5 1950 м
[Ac]
-2.2 -5.6 77 -6 -6 1003.9 903.8 -2.2 -1.1 3.0
штиль 0 16 км 10/10 1800 м -2.2 -6.1 75 -3 -3 1003.9 903.8
СЗ 2 14 км слабый снег 10/10 1140 м -2.8 -5.6 81 -9 -9 1005.2 904.8
СЗ 2 14 км слабый снег 10/10 780 м -2.8 -5.6 81 -9 -9 905.1
СЗ 3 13 км 10/10 390 м -3.3 -5.6 84 -11 -11 1006.5 905.7
СЗ 2 10 км слабый снег, дымка 10/10 390 м -3.3 -5.6 84 -10 -10 905.7
З 2 16 км 10/0 2550 м
[Ac]
-3.9 -6.1 85 -10 -10 1007.1 906.3
СЗ 1 16 км 2/0 2700 м
[Ac]
-5.0 -6.7 88 -11 -10 1007.9 906.9
З 1 16 км 5/0 2550 м
[Ac]
-2.8 -6.7 74 -8 -7 1008.2 907.5 -5.0 -2.2
СЗ 2 16 км 5/2 1650 м
[Ac]
-3.3 -7.8 71 -10 -9 1008.5 907.8
СЗ 3 16 км 2/0 2700 м
[Ac]
-2.8 -8.3 66 -10 -9 1008.3 907.8
СЗ 3 16 км 2/0 2850 м
[Ac]
-3.3 -8.3 68 -10 -9 1008.5 907.8
СЗ 2 16 км ясно -3.3 -8.3 68 -9 -7 1008.9 908.1
СЗ 2 16 км ясно -3.9 -8.3 71 -10 -9 1010.1 909.0
Местоположение метеостанции Boise Air Terminal: широта 43.5670 долгота -116.2405 высота над уровнем моря 860 м.
В архиве по умолчанию представлена погода в Бойсе за последние 1-2 суток. Обновление информации о фактической погоде в базе происходит ежечасно! Архивные данные за месяц целиком и за предыдущие месяцы Вы можете получить, выбрав интересующий диапазон дат из раскрывающегося списка и нажав кнопку "Ввод!".
Внимание! Архив погоды МЕТАР в базе сайта по станциям, не включенным в климатический монитор, хранится не более 60 дней. Нет смысла пытаться выбрать более раннюю дату.
*Определитесь, кто Вы:
Внимание! Время в таблицах - местное (без учета летнего времени). Для получения всемирного времени необходимо вычесть поправку, которая равна -7 ч.
Смотрите также архив погоды в соседних городах и на ближайших метеорологических станциях:
Партнеры нашего сайта:      
Пояснения к столбцам:
  • Ветер - указаны скорость ветра в м/с - средняя за 10 мин, порывы в срок и между сроками (в фигурных скобках) и направление, откуда дует ветер: С - северный,
  • СВ - северо-восточный, В - восточный, ЮВ - юго-восточный, Ю - южный, ЮЗ - юго-западный, З - западный, СЗ - северо-западный.
  • Видимость - горизонтальная дальность видимости в метрах или километрах. При видимости от 1 до 10 км при отсутствии осадков обычно наблюдается дымка, при ухудшении видимости до 1 км и менее - туман. В сухую погоду видимость может ухудшаться дымом, пылью или мглою.
  • Явления - указаны атмосферные явления, наблюдавшиеся в срок или в последний час перед сроком; фигурными скобками обозначены явления, наблюдавшиеся между сроками (за 1-3 часа до срока); квадратными скобками обозначены град или гололедные отложения с указанием их диаметра в мм.
  • Облачность - указаны через наклонную черту общая и нижняя облачность в баллах и высота нижней границы облаков в метрах; квадратными скобками обозначены формы облаков: Ci - перистые, Cs - перисто-слоистые, Cc - перисто-кучевые, Ac - высококучевые, As - высокослоистые, Sc - слоисто-кучевые, Ns - слоисто-дождевые, Cu - кучевые, Cb - кучево-дождевые. Подробнее классификацию облаков см. в Атласе облаков (PDF).
  • T - Температура воздуха - температура, измеренная на высоте 2 м над землей.
  • Td - Температура точки росы - температура, при понижении до которой содержащийся в воздухе водяной пар достигнет насыщения.
  • f - Относительная влажность воздуха - влажноcть воздуха, измеренная на высоте 2 м над землей.
  • Te - Эффективная температура - температура, которую ощущает одетый по сезону человек в тени. Характеристика душности погоды. При расчете учитывается влияние влажности воздуха и скорости ветра на теплоощущения человека.
  • Tes - Эффективная температура на солнце - температура, которую ощущает человек, с поправкой на солнечный нагрев. Характеристика знойности погоды. Зависит от высоты солнца над горизонтом, облачности и скорости ветра. Ночью, в пасмурную погоду, а также при ветре 12 м/с и более поправка равна нулю.
  • P - Атмосферное давление - приведенное к уровню моря атмосферное давление.
  • Po - Атмосферное давление - измеренное на уровне метеостанции атмосферное давление.
  • Tmin - Минимальная температура - минимум температуры воздуха на высоте 2 м над землей.
  • Tmax - Максимальная температура - максимум температуры воздуха на высоте 2 м над землей.
  • R - Количество осадков - Количество выпавших осадков за период времени, мм. При наведении курсора мыши на число - период времени, за который выпало указанное количество осадков.
  • R24 - Количество осадков - Количество выпавших осадков за 24 часа, мм.
  • S - Снежный покров - Высота снежного покрова, см. При наведении курсора мыши на число - состояние снежного покрова и степень покрытия местности в баллах.